New Roads False River Regiona, LA

2:26 PM CDT on June 22, 2017 (GMT -0500)
False River

Weather History for KHZR - March, 2014

Change the Weather History Date:

Sunday, March 2, 2014

  Actual Average (KBTR) Record (KBTR)
Temperature  
Mean Temperature 70 °F -  
Max Temperature 79 °F 69 °F 93 °F (1909)
Min Temperature 59 °F 49 °F 22 °F (1980)
Cooling Degree Days 5    
Growing Degree Days 20 (Base 50)    
Moisture  
Dew Point 62 °F    
Average Humidity 82    
Maximum Humidity 99    
Minimum Humidity 54    
Precipitation  
Precipitation 0.00 in - - ()
Sea Level Pressure  
Sea Level Pressure 30.04 in    
Wind  
Wind Speed 8 mph (SSE)    
Max Wind Speed 22 mph    
Max Gust Speed 32 mph    
Visibility 8 miles    
Events      
Averages and records for this station are not official NWS values.
T = Trace of Precipitation, MM = Missing Value Source: NWS Daily Summary

Daily Weather History Graph

Daily Weather History Graph

Search for Another Location

Airport or City:

Trip Planner

Search our weather history database for the weather conditions in past years. The results will help you decide how hot, cold, wet, or windy it might be!

Date:

Astronomy

Mar. 02, 2014 Rise Set
Actual Time 6:31 AM CST 6:05 PM CST
Civil Twilight 6:06 AM CST 6:29 PM CST
Nautical Twilight 5:39 AM CST 6:57 PM CST
Astronomical Twilight 5:11 AM CST 7:25 PM CST
Moon 7:10 AM CST (3/2) 7:51 PM CST (3/2)
Length of Visible Light 12h 22m
Length of Day
11h 34m
Waxing Crescent, 3% of the Moon is Illuminated
Mar 2
Waxing Crescent
Mar 8
First Quarter
Mar 16
Full
Mar 23
Last Quarter
Mar 30
New

Hourly Weather History & Observations

Time (CST) Temp. Dew Point Humidity Pressure Visibility Wind Dir Wind Speed Gust Speed Precip Events Conditions
12:15 AM 61.7 °F 60.3 °F 95% 30.08 in 10.0 mi ESE 5.8 mph - N/A   Clear
12:35 AM 61.0 °F 60.1 °F 97% 30.08 in 10.0 mi SE 4.6 mph - N/A   Clear
12:55 AM 61.0 °F 60.3 °F 97% 30.08 in 7.0 mi SE 5.8 mph - N/A   Clear
1:15 AM 61.2 °F 60.6 °F 98% 30.07 in 7.0 mi SE 5.8 mph - N/A   Clear
1:35 AM 61.0 °F 60.3 °F 97% 30.07 in 5.0 mi ESE 5.8 mph - N/A   Clear
1:55 AM 61.5 °F 61.0 °F 98% 30.08 in 5.0 mi SE 5.8 mph - N/A   Mostly Cloudy
2:15 AM 62.2 °F 61.7 °F 98% 30.08 in 5.0 mi SE 4.6 mph - N/A   Overcast
2:35 AM 62.6 °F 62.1 °F 98% 30.09 in 3.0 mi SE 6.9 mph - N/A   Overcast
2:55 AM 63.0 °F 62.6 °F 99% 30.09 in 4.0 mi SE 5.8 mph - N/A   Overcast
3:15 AM 62.8 °F 62.1 °F 97% 30.09 in 4.0 mi SE 6.9 mph - N/A   Overcast
3:35 AM 62.6 °F 61.9 °F 97% 30.09 in 5.0 mi SE 8.1 mph - N/A   Overcast
3:55 AM 62.4 °F 61.0 °F 95% 30.08 in 10.0 mi SE 9.2 mph - N/A   Mostly Cloudy
4:15 AM 62.2 °F 60.8 °F 95% 30.09 in 10.0 mi SE 9.2 mph - N/A   Mostly Cloudy
4:35 AM 62.6 °F 61.2 °F 95% 30.08 in 10.0 mi ESE 9.2 mph - N/A   Mostly Cloudy
4:55 AM 62.2 °F 60.8 °F 95% 30.08 in 7.0 mi ESE 10.4 mph - N/A   Overcast
5:15 AM 62.1 °F 61.0 °F 96% 30.08 in 7.0 mi ESE 10.4 mph - N/A   Mostly Cloudy
5:35 AM 62.1 °F 61.2 °F 97% 30.09 in 7.0 mi ESE 9.2 mph - N/A   Mostly Cloudy
5:55 AM 61.9 °F 60.8 °F 96% 30.09 in 5.0 mi SE 11.5 mph - N/A   Mostly Cloudy
6:15 AM 61.9 °F 60.8 °F 96% 30.09 in 5.0 mi SE 9.2 mph - N/A   Mostly Cloudy
6:35 AM 62.1 °F 61.0 °F 96% 30.10 in 5.0 mi SE 9.2 mph - N/A   Overcast
6:55 AM 62.4 °F 61.2 °F 96% 30.10 in 4.0 mi ESE 10.4 mph - N/A   Overcast
7:15 AM 62.6 °F 61.3 °F 96% 30.10 in 3.0 mi SE 10.4 mph - N/A   Overcast
7:35 AM 63.0 °F 61.7 °F 96% 30.11 in 3.0 mi ESE 8.1 mph - N/A   Overcast
7:55 AM 63.5 °F 61.9 °F 94% 30.11 in 2.5 mi ESE 9.2 mph - N/A   Overcast
8:15 AM 63.9 °F 61.9 °F 93% 30.11 in 3.0 mi ESE 9.2 mph - N/A   Overcast
8:35 AM 64.4 °F 62.2 °F 93% 30.12 in 4.0 mi SE 10.4 mph - N/A   Overcast
8:55 AM 64.8 °F 62.6 °F 93% 30.13 in 4.0 mi SE 11.5 mph - N/A   Overcast
9:15 AM 65.3 °F 62.8 °F 92% 30.13 in 4.0 mi ESE 8.1 mph - N/A   Overcast
9:35 AM 65.7 °F 63.0 °F 91% 30.13 in 5.0 mi ESE 9.2 mph - N/A   Overcast
9:55 AM 66.4 °F 63.1 °F 89% 30.13 in 5.0 mi ESE 10.4 mph - N/A   Overcast
10:15 AM 67.1 °F 63.3 °F 88% 30.13 in 7.0 mi ESE 10.4 mph - N/A   Overcast
10:35 AM 67.5 °F 63.3 °F 87% 30.13 in 7.0 mi SE 10.4 mph - N/A   Overcast
10:55 AM 68.5 °F 63.7 °F 84% 30.12 in 7.0 mi SE 8.1 mph - N/A   Overcast
11:15 AM 70.0 °F 64.4 °F 82% 30.11 in 10.0 mi SE 9.2 mph 17.3 mph N/A   Overcast
11:35 AM 71.1 °F 64.8 °F 80% 30.10 in 10.0 mi ESE 10.4 mph - N/A   Overcast
11:55 AM 72.1 °F 65.3 °F 79% 30.09 in 10.0 mi SE 6.9 mph - N/A   Overcast
12:15 PM 72.7 °F 65.3 °F 78% 30.08 in 10.0 mi SE 5.8 mph - N/A   Overcast
12:35 PM 73.9 °F 65.3 °F 74% 30.07 in 10.0 mi SSE 5.8 mph - N/A   Overcast
12:55 PM 73.9 °F 64.4 °F 72% 30.06 in 10.0 mi SSE 6.9 mph - N/A   Overcast
1:15 PM 76.1 °F 65.5 °F 70% 30.05 in 10.0 mi SE 8.1 mph - N/A   Overcast
1:30 PM 75.4 °F 63.3 °F 66% 30.04 in 10.0 mi SSE 8.1 mph - N/A   Overcast
1:55 PM 75.9 °F 63.1 °F 64% 30.02 in 10.0 mi SSE 9.2 mph - N/A   Overcast
2:15 PM 78.3 °F 62.6 °F 58% 30.00 in 10.0 mi SSE 10.4 mph 16.1 mph N/A   Overcast
2:35 PM 77.4 °F 62.2 °F 59% 30.00 in 10.0 mi South 10.4 mph 17.3 mph N/A   Overcast
2:55 PM 78.4 °F 61.5 °F 56% 29.98 in 10.0 mi South 15.0 mph 26.5 mph N/A   Mostly Cloudy
3:15 PM 79.0 °F 61.2 °F 54% 29.98 in 10.0 mi South 13.8 mph 24.2 mph N/A   Mostly Cloudy
3:35 PM 77.7 °F 60.4 °F 55% 29.97 in 10.0 mi South 16.1 mph 25.3 mph N/A   Mostly Cloudy
3:55 PM 77.9 °F 60.3 °F 54% 29.97 in 10.0 mi South 15.0 mph 28.8 mph N/A   Mostly Cloudy
4:15 PM 76.8 °F 61.0 °F 58% 29.96 in 10.0 mi South 10.4 mph 24.2 mph N/A   Overcast
4:35 PM 77.4 °F 61.2 °F 57% 29.95 in 10.0 mi South 15.0 mph 32.2 mph N/A   Mostly Cloudy
4:55 PM 76.1 °F 60.8 °F 59% 29.95 in 10.0 mi South 13.8 mph 26.5 mph N/A   Mostly Cloudy
5:15 PM 74.5 °F 60.8 °F 62% 29.95 in 10.0 mi South 10.4 mph 20.7 mph N/A   Scattered Clouds
5:35 PM 73.8 °F 60.8 °F 64% 29.95 in 10.0 mi South 12.7 mph 18.4 mph N/A   Clear
5:55 PM 73.4 °F 60.8 °F 65% 29.95 in 10.0 mi South 6.9 mph 18.4 mph N/A   Mostly Cloudy
6:15 PM 72.5 °F 60.8 °F 67% 29.95 in 10.0 mi South 9.2 mph 16.1 mph N/A   Overcast
6:35 PM 72.7 °F 61.2 °F 67% 29.96 in 10.0 mi South 9.2 mph - N/A   Overcast
6:55 PM 71.6 °F 61.2 °F 70% 29.96 in 10.0 mi South 11.5 mph 18.4 mph N/A   Mostly Cloudy
7:15 PM 70.9 °F 61.3 °F 72% 29.97 in 10.0 mi South 10.4 mph 16.1 mph N/A   Clear
7:35 PM 70.7 °F 61.7 °F 73% 29.97 in 10.0 mi SSW 10.4 mph - N/A   Mostly Cloudy
7:55 PM 70.9 °F 61.7 °F 73% 29.97 in 10.0 mi South 9.2 mph - N/A   Overcast
8:15 PM 70.0 °F 61.7 °F 75% 29.96 in 10.0 mi South 10.4 mph - N/A   Scattered Clouds
8:35 PM 69.8 °F 61.7 °F 75% 29.95 in 10.0 mi South 8.1 mph - N/A   Mostly Cloudy
8:55 PM 69.4 °F 61.7 °F 76% 29.96 in 10.0 mi South 9.2 mph - N/A   Overcast
9:15 PM 69.1 °F 62.6 °F 80% 29.96 in 10.0 mi South 10.4 mph - N/A   Overcast
9:35 PM 68.9 °F 62.6 °F 80% 29.96 in 10.0 mi South 9.2 mph 16.1 mph N/A   Overcast
9:55 PM 68.5 °F 62.6 °F 81% 29.96 in 10.0 mi South 10.4 mph 16.1 mph N/A   Overcast
10:15 PM 68.4 °F 62.6 °F 82% 29.96 in 10.0 mi South 11.5 mph 16.1 mph N/A   Overcast
10:35 PM 68.2 °F 62.8 °F 83% 29.95 in 10.0 mi South 10.4 mph 16.1 mph N/A   Overcast
10:55 PM 68.0 °F 62.8 °F 83% 29.95 in 10.0 mi South 8.1 mph 17.3 mph N/A   Overcast
11:15 PM 68.0 °F 63.0 °F 84% 29.94 in 10.0 mi South 8.1 mph - N/A   Overcast
11:35 PM 68.7 °F 63.5 °F 83% 29.94 in 10.0 mi South 8.1 mph 17.3 mph N/A   Overcast
11:55 PM 59.5 °F 54.0 °F 82% 30.00 in 10.0 mi WNW 21.9 mph 31.1 mph N/A   Overcast